Weather History for VTUU - November, 2013

Change the Weather History Date:

Tuesday, November 12, 2013

  Actual Average Record
Temperature  
Mean Temperature 85 °F -  
Max Temperature 94 °F 87 °F - ()
Min Temperature 76 °F 66 °F - ()
Cooling Degree Days 20    
Growing Degree Days 35 (Base 50)    
Moisture  
Dew Point 74 °F    
Average Humidity 69    
Maximum Humidity 94    
Minimum Humidity 42    
Precipitation  
Precipitation 0.00 in 0.02 in - ()
Sea Level Pressure  
Sea Level Pressure 29.76 in    
Wind  
Wind Speed 1 mph ()    
Max Wind Speed 6 mph    
Max Gust Speed -    
Visibility 5.5 miles    
Events      
T = Trace of Precipitation, MM = Missing Value Source: Averaged Metar Reports

Daily Weather History Graph

Daily Weather History Graph

Search for Another Location

Airport or City:

Trip Planner

Search our weather history database for the weather conditions in past years. The results will help you decide how hot, cold, wet, or windy it might be!

Date:

Astronomy

Nov. 12, 2013 Rise Set
Actual Time 6:00 AM ICT 5:28 PM ICT
Civil Twilight 5:38 AM ICT 5:50 PM ICT
Nautical Twilight 5:12 AM ICT 6:16 PM ICT
Astronomical Twilight 4:46 AM ICT 6:42 PM ICT
Moon 1:39 PM ICT (11/12) 1:06 AM ICT (11/12)
Length of Visible Light 12h 12m
Length of Day
11h 27m
Waxing Gibbous, 71% of the Moon is Illuminated
Nov 12
Waxing Gibbous
Nov 17
Full
Nov 26
Last Quarter
Dec 3
New
Dec 9
First Quarter

Hourly Weather History & Observations

Time (ICT) Temp. Heat Index Dew Point Humidity Pressure Visibility Wind Dir Wind Speed Gust Speed Precip Events Conditions
12:00 AM 80.6 °F 86.2 °F 75.2 °F 84% 29.77 in 5.6 mi Calm Calm - N/A   Unknown
1:00 AM 80.6 °F 86.2 °F 75.2 °F 84% 29.77 in 5.6 mi Calm Calm - N/A   Unknown
3:00 AM 78.8 °F - 75.2 °F 89% 29.74 in 5.6 mi Calm Calm - N/A   Unknown
4:00 AM 78.8 °F - 75.2 °F 89% 29.74 in 5.6 mi North 2.3 mph - N/A   Unknown
5:00 AM 77.0 °F - 75.2 °F 94% 29.74 in 5.6 mi North 2.3 mph - N/A   Unknown
6:00 AM 77.0 °F - 75.2 °F 94% 29.77 in 4.3 mi Calm Calm - N/A   Unknown
6:30 AM 77.0 °F - 75.2 °F 94% 29.80 in 4.3 mi Calm Calm - N/A   Unknown
7:00 AM 78 °F - 74 °F 84% 29.82 in 4 mi Calm Calm - -   Mist
7:00 AM 78.8 °F - 75.2 °F 89% 29.80 in 4.3 mi Calm Calm - N/A   Unknown
8:00 AM 82.4 °F 89.5 °F 75.2 °F 79% 29.83 in 5.6 mi ESE 2.3 mph - N/A   Unknown
9:00 AM 84.2 °F 90.9 °F 73.4 °F 70% 29.83 in - SE 4.6 mph - N/A   Clear
10:00 AM 87.8 °F 97.6 °F 75.2 °F 66% 29.83 in 6.2 mi SSE 4.6 mph - N/A   Scattered Clouds
11:00 AM 89.6 °F 98.2 °F 73.4 °F 59% 29.83 in 6.2 mi NE 4.6 mph - N/A   Scattered Clouds
12:00 PM 91.4 °F 98.4 °F 71.6 °F 52% 29.77 in 6.2 mi SE 5.8 mph - N/A   Scattered Clouds
1:00 PM 92 °F - 72 °F 42% 29.74 in 6 mi East 5.8 mph - -   Partly Cloudy
1:00 PM 91.4 °F 98.4 °F 71.6 °F 52% 29.74 in 6.2 mi East 5.8 mph - N/A   Scattered Clouds
2:00 PM 93.2 °F 100.5 °F 71.6 °F 49% 29.71 in 6.2 mi East 5.8 mph - N/A   Mostly Cloudy
3:00 PM 91.4 °F 96.8 °F 69.8 °F 49% 29.71 in 6.2 mi ENE 2.3 mph - N/A   Mostly Cloudy
4:00 PM 91 °F - 71 °F 43% 29.71 in 6 mi East 3.5 mph - -   Scattered Clouds
4:00 PM 91.4 °F 98.4 °F 71.6 °F 52% 29.71 in 6.2 mi East 3.5 mph - N/A   Mostly Cloudy
5:00 PM 91.4 °F 98.4 °F 71.6 °F 52% 29.71 in 6.2 mi NE 2.3 mph - N/A   Mostly Cloudy
5:30 PM 89.6 °F 98.2 °F 73.4 °F 59% 29.71 in 5.6 mi Calm Calm - N/A   Mostly Cloudy
6:00 PM 87.8 °F 95.6 °F 73.4 °F 62% 29.71 in 5.6 mi Calm Calm - N/A   Mostly Cloudy
7:00 PM 87 °F - 75 °F 60% 29.76 in 6 mi Calm Calm - -   Mist
7:00 PM 87.8 °F 97.6 °F 75.2 °F 66% 29.74 in 5.6 mi Calm Calm - N/A   Mostly Cloudy
8:00 PM 86.0 °F 95.1 °F 75.2 °F 70% 29.77 in 5.6 mi North 2.3 mph - N/A   Mostly Cloudy
9:00 PM 84.2 °F 92.3 °F 75.2 °F 74% 29.77 in 5.0 mi Calm Calm - N/A   Unknown
10:00 PM 84 °F - 76 °F 71% 29.79 in 5 mi Calm Calm - -   Mist
10:00 PM 84.2 °F 92.3 °F 75.2 °F 74% 29.77 in 5.0 mi Calm Calm - N/A   Unknown
11:00 PM 82.4 °F 89.5 °F 75.2 °F 79% 29.77 in 5.0 mi Calm Calm - N/A   Unknown